#timestamp,LO_Frequency,Hit 
1502190015.1,286047028.8,N
1502190016.0,286047028.8,N
1502190035.8,286047032.5,P
1502190055.6,286047015.9,N
1502190075.5,286047018.5,N
1502190095.3,286047021.2,P
1502190115.1,286046999.9,N
1502190135.9,286046999.1,N
1502190155.7,286047004.3,N
1502190175.5,286047003.6,N
1502190195.4,286046998.6,N
1502190215.2,286047002.2,N
1502190235.0,286047000.5,N
1502190235.9,286047000.5,N
1502190255.8,286046997.9,N
1502190275.6,286046993.2,N
1502190295.4,286046996.7,N
1502190315.3,286047000.9,N
1502190335.1,286046997.4,N
1502190336.0,286046997.4,N
1502190355.8,286046993.3,N
1502190375.7,286046991.7,N
1502190395.5,286046991.6,N
1502190415.3,286046988.7,N
1502190435.1,286046989.9,N
1502190455.9,286046984.1,N
1502190475.7,286046983.2,N
1502190495.5,286046979.3,N
1502190515.4,286046980.2,N
1502190535.2,286046975.2,N
1502190555.0,286046973.8,N
1502190555.9,286046973.8,N
1502190575.8,286046971.8,N
1502190595.6,286046966.0,N
1502190615.4,286046965.6,N
1502190635.3,286046959.2,P
1502190655.1,286046963.4,N
1502190675.8,286046964.3,N
1502190695.7,286046961.1,P
1502190715.5,286046991.4,N
1502190735.3,286046994.6,N
1502190755.2,286046997.2,N
1502190775.9,286046998.2,N
1502190795.7,286047003.0,N
1502190815.6,286047013.5,N
1502190835.4,286047019.7,N
1502190855.2,286047020.3,N
1502190875.1,286047023.2,N
1502190876.0,286047023.2,N
1502190895.8,286047020.7,N
1502190915.6,286047022.0,N
1502190935.5,286047020.2,N
1502190955.3,286047016.7,N
1502190975.1,286047011.0,N
1502190995.8,286047011.7,N
1502191015.7,286047012.2,N
1502191035.5,286047009.6,N
1502191055.3,286047006.2,N
1502191075.2,286047006.7,N
1502191095.9,286047006.9,N
1502191115.7,286047007.4,N
1502191135.6,286047004.1,N
1502191155.4,286047003.8,N
1502191175.2,286047003.1,N
1502191195.1,286047002.6,N
1502191196.0,286047002.6,N
1502191215.8,286047000.2,N
1502191235.6,286047000.6,N
1502191255.5,286046998.6,N
1502191275.3,286046994.5,N
1502191295.1,286046992.0,N
1502191315.8,286046993.5,N
1502191335.7,286046998.7,N
1502191355.5,286047006.0,N
1502191375.3,286047005.1,N
1502191395.2,286047007.6,N
1502191415.9,286047013.9,N
1502191435.7,286047014.6,N
1502191455.6,286047011.7,N
1502191475.4,286047017.2,N
1502191495.2,286047015.3,N
1502191515.1,286047012.0,N
1502191516.0,286047012.0,N
1502191535.8,286047008.8,N
1502191555.6,286047005.5,N
1502191575.5,286047003.7,N
1502191595.3,286047004.3,N
1502191615.1,286047000.3,N
1502191635.9,286046998.5,N
1502191655.7,286047002.3,N
1502191675.5,286047006.1,N
1502191695.3,286047010.3,N
1502191715.2,286047011.7,N
1502191735.0,286047013.9,N
1502191735.9,286047013.9,N
1502191755.7,286047015.0,N
1502191775.6,286047018.1,N
1502191795.4,286047020.1,N
1502191815.2,286047019.0,N
1502191835.1,286047020.6,N
1502191836.0,286047020.6,N
1502191855.8,286047023.5,P
1502191875.6,286047014.8,N
1502191895.5,286047015.5,N
1502191915.3,286047013.0,N
1502191935.1,286047013.2,N
1502191955.9,286047015.9,P
1502191975.7,286047002.5,P
1502191995.5,286047006.1,N
1502192015.4,286047009.2,N
1502192035.2,286047006.3,N
1502192055.0,286047008.1,N
1502192055.9,286047008.1,N
1502192075.8,286047012.1,N
1502192095.6,286047016.7,P
1502192115.5,286047004.9,N
1502192135.3,286047008.6,N
1502192155.1,286047010.2,N
1502192175.9,286047012.2,P
1502192195.7,286047004.9,P
1502192215.5,286047006.0,N
1502192235.4,286047002.4,N
1502192255.2,286046998.6,N
1502192275.0,286046999.0,N
1502192275.9,286046999.0,N
1502192295.7,286046999.2,N
1502192315.6,286046995.9,N
1502192335.4,286046994.1,N
1502192355.2,286046997.6,N
1502192375.1,286047001.1,N
1502192376.0,286047001.1,N
1502192395.8,286047001.2,N
1502192415.6,286046998.2,N
1502192435.5,286046999.9,N
1502192455.3,286046998.2,N
1502192475.1,286046999.6,N
1502192495.9,286046998.8,N
1502192515.7,286047006.2,N
1502192535.5,286047003.3,N
1502192555.4,286047003.3,N
1502192575.2,286047007.6,N
1502192595.0,286047006.3,N
1502192595.9,286047006.3,N
1502192615.8,286047010.8,N
1502192635.6,286047009.9,N
1502192655.4,286047006.7,N
1502192675.2,286047003.5,N
1502192695.1,286047002.1,N
1502192696.0,286047002.1,N
1502192715.8,286046999.7,N
1502192735.6,286047000.1,N
1502192755.5,286047004.4,N
1502192775.3,286046998.7,N
1502192795.1,286046999.2,N
1502192815.9,286046994.9,N
1502192835.7,286046993.0,N
1502192855.5,286046988.5,N
1502192875.4,286046987.1,N
1502192895.2,286046984.5,N
1502192915.0,286046980.6,P
1502192915.9,286046980.6,N
1502192935.8,286046980.4,N
1502192955.6,286046976.8,N
1502192975.4,286046973.6,P
1502192995.3,286046984.1,P
1502193015.1,286046982.9,P
1502193035.9,286046981.9,P
1502193055.7,286046997.6,P
1502193075.5,286046994.3,N
1502193095.3,286046992.2,N
1502193115.2,286046988.5,N
1502193135.0,286046988.0,N
1502193135.9,286046988.0,N
1502193155.7,286046986.3,N
1502193175.6,286046983.8,P
1502193195.4,286046996.5,N
1502193215.2,286046996.1,N
1502193235.1,286046993.4,N
1502193236.0,286046993.4,N
1502193255.8,286046997.5,N
1502193275.6,286046995.8,N
1502193295.5,286046994.6,N
1502193315.3,286046992.1,N
1502193335.1,286046991.0,N
1502193355.9,286046991.5,N
1502193375.7,286046989.1,N
1502193395.5,286046987.9,P
1502193415.4,286046993.0,P
1502193435.2,286046994.8,N
1502193455.0,286046994.1,N
1502193455.9,286046994.1,N
1502193475.8,286046993.4,N
1502193495.6,286046994.8,N
1502193515.4,286046992.4,P
1502193535.3,286047002.1,P
1502193555.1,286046999.4,N
1502193575.8,286046996.8,N
1502193595.7,286046996.8,N
